Time,TemperatureF,DewpointF,PressureIn,WindDirection,WindDirectionDegrees,WindSpeedMPH,WindSpeedGustMPH,Humidity,HourlyPrecipIn,Conditions,Clouds,dailyrainin,SoftwareType,DateUTC
2013-08-14 00:41:00,63.0,59.0,29.90,ENE,60,3.0,-999.0,88,0.00,,,-99.99,,2013-08-14 07:41:00,
2013-08-14 01:21:00,63.0,59.0,29.90,SE,130,6.0,-999.0,88,0.00,,,-99.99,,2013-08-14 08:21:00,
2013-08-14 01:31:00,63.0,59.0,29.90,SE,130,6.0,-999.0,88,0.00,,,-99.99,,2013-08-14 08:31:00,
2013-08-14 01:42:00,63.0,59.0,29.90,SE,130,6.0,-999.0,88,0.00,,,-99.99,,2013-08-14 08:42:00,
2013-08-14 02:43:00,64.0,61.0,29.89,SSE,160,2.0,-999.0,89,0.00,,,-99.99,,2013-08-14 09:43:00,
2013-08-14 03:22:00,63.0,60.0,29.88,South,170,4.0,-999.0,89,0.00,,,-99.99,,2013-08-14 10:22:00,
2013-08-14 03:32:00,63.0,60.0,29.88,South,170,4.0,-999.0,89,0.00,,,-99.99,,2013-08-14 10:32:00,
2013-08-14 03:42:00,63.0,60.0,29.88,South,170,4.0,-999.0,89,0.00,,,-99.99,,2013-08-14 10:42:00,
2013-08-14 04:42:00,63.0,60.0,29.88,South,190,4.0,-999.0,90,0.00,,,-99.99,,2013-08-14 11:42:00,
2013-08-14 05:42:00,63.0,60.0,29.87,SE,130,7.0,-999.0,90,0.00,,,-99.99,,2013-08-14 12:42:00,
2013-08-14 06:21:00,63.0,60.0,29.88,North,0,0.0,-999.0,90,0.00,,,-99.99,,2013-08-14 13:21:00,
2013-08-14 06:31:00,63.0,60.0,29.88,North,0,0.0,-999.0,90,0.00,,,-99.99,,2013-08-14 13:31:00,
2013-08-14 06:41:00,63.0,60.0,29.88,North,0,0.0,-999.0,90,0.00,,,-99.99,,2013-08-14 13:41:00,
2013-08-14 07:42:00,62.0,59.0,29.89,North,0,0.0,-999.0,90,0.00,,,-99.99,,2013-08-14 14:42:00,
2013-08-14 08:43:00,62.0,59.0,29.89,NNE,30,2.0,-999.0,90,0.00,,,-99.99,,2013-08-14 15:43:00,
2013-08-14 09:43:00,63.0,60.0,29.90,North,10,2.0,-999.0,90,0.00,,,-99.99,,2013-08-14 16:43:00,
2013-08-14 10:44:00,64.0,61.0,29.90,WNW,300,5.0,-999.0,90,0.00,,,-99.99,,2013-08-14 17:44:00,
2013-08-14 12:42:00,65.0,62.0,29.90,West,270,7.0,-999.0,89,0.00,,,-99.99,,2013-08-14 19:42:00,
2013-08-14 13:45:00,65.0,61.0,29.87,West,270,5.0,-999.0,87,0.00,,,-99.99,,2013-08-14 20:45:00,
2013-08-14 13:52:00,65.0,61.0,29.88,West,280,6.0,-999.0,88,0.00,,,-99.99,,2013-08-14 20:52:00,
2013-08-14 14:23:00,65.0,61.0,29.87,West,270,5.0,-999.0,87,0.00,,,-99.99,,2013-08-14 21:23:00,
2013-08-14 14:34:00,65.0,61.0,29.87,West,270,5.0,-999.0,87,0.00,,,-99.99,,2013-08-14 21:34:00,
2013-08-14 15:44:00,64.0,60.0,29.86,WSW,240,5.0,-999.0,87,0.00,,,-99.99,,2013-08-14 22:44:00,
2013-08-14 15:45:00,65.0,61.0,29.85,West,270,7.0,-999.0,87,0.00,,,-99.99,,2013-08-14 22:45:00,
2013-08-14 17:23:00,64.0,60.0,29.84,WSW,250,5.0,-999.0,87,0.00,,,-99.99,,2013-08-15 00:23:00,
2013-08-14 17:32:00,64.0,60.0,29.84,WSW,250,5.0,-999.0,87,0.00,,,-99.99,,2013-08-15 00:32:00,
2013-08-14 17:43:00,64.0,60.0,29.84,WSW,250,5.0,-999.0,87,0.00,,,-99.99,,2013-08-15 00:43:00,
2013-08-14 18:42:00,64.0,60.0,29.83,North,0,0.0,-999.0,88,0.00,,,-99.99,,2013-08-15 01:42:00,
2013-08-14 20:43:00,63.0,60.0,29.86,SSW,210,4.0,-999.0,89,0.00,,,-99.99,,2013-08-15 03:43:00,
2013-08-14 21:43:00,64.0,61.0,29.86,SE,140,4.0,-999.0,89,0.00,,,-99.99,,2013-08-15 04:43:00,
2013-08-14 22:42:00,64.0,61.0,29.88,SSE,160,7.0,-999.0,90,0.00,,,-99.99,,2013-08-15 05:42:00,
2013-08-14 23:42:00,64.0,61.0,29.89,South,180,3.0,-999.0,91,0.00,,,-99.99,,2013-08-15 06:42:00,